KC4LW Weather Reports


time (UTC)temp
C
wind
direction
speed
KPH
gust
KPH
rain 1hr
cm
rain 24hr
cm
rain mn
cm
humidity
%
barometer
mb
20260509153054 25 348 1.6 4.8 0.00 0.51 0.15 85 1012.7
20260509151616 25 0 0.0 4.8 0.00 0.51 0.15 86 1013.0
20260509150054 24 0 0.0 4.8 0.00 0.51 0.15 88 1012.9
20260509144552 23 288 0.0 3.2 0.00 0.51 0.15 89 1013.0
20260509143103 23 0 0.0 4.8 0.00 0.51 0.15 91 1013.1
20260509141555 23 0 0.0 3.2 0.00 0.51 0.15 92 1012.6
20260509140052 22 280 3.2 6.4 0.00 0.51 0.15 94 1012.9
20260509134555 22 299 1.6 8.0 0.00 0.51 0.15 95 1012.9
20260509133054 22 266 1.6 4.8 0.00 0.51 0.15 96 1012.7
20260509131559 22 0 0.0 3.2 0.00 0.51 0.15 97 1012.4
20260509130126 21 0 1.6 4.8 0.00 0.51 0.15 97 1012.5
20260509124555 21 240 1.6 4.8 0.00 0.51 0.15 98 1012.2
20260509123120 21 0 1.6 4.8 0.00 0.51 0.15 98 1012.4
20260509121555 21 281 1.6 4.8 0.00 0.51 0.15 98 1012.2
20260509120053 21 311 1.6 4.8 0.00 0.51 0.15 98 1012.1
20260509114624 20 283 0.0 4.8 0.03 0.51 0.15 98 1011.9
20260509113112 20 0 3.2 8.0 0.03 0.51 0.15 98 1011.4
20260509111556 20 188 1.6 8.0 0.03 0.51 0.15 98 1011.2
20260509104548 20 0 0.0 4.8 0.00 0.48 0.13 98 1010.2
20260509103107 19 164 0.0 3.2 0.00 0.48 0.13 98 1010.5
20260509101602 19 0 0.0 3.2 0.00 0.48 0.13 98 1010.4
20260509100054 18 0 0.0 1.6 0.00 0.48 0.13 98 1010.3
20260509094601 18 0 0.0 0.0 0.00 0.48 0.13 98 1011.2
20260509093055 18 0 0.0 0.0 0.00 0.48 0.13 98 1010.8
20260509091557 18 0 0.0 0.0 0.00 0.48 0.13 98 1011.2
20260509084602 19 0 0.0 0.0 0.00 0.48 0.13 98 1011.1
20260509083052 19 0 0.0 0.0 0.00 0.48 0.13 98 1011.3
20260509081559 19 0 0.0 0.0 0.00 0.48 0.13 98 1011.2
20260509080059 19 0 0.0 0.0 0.00 0.48 0.13 98 1011.6
20260509074552 19 0 0.0 0.0 0.00 0.48 0.13 98 1011.6
20260509073054 19 0 0.0 3.2 0.00 0.48 0.13 98 1011.6
20260509071551 19 0 0.0 3.2 0.00 0.48 0.13 98 1012.0
20260509070053 19 0 0.0 1.6 0.00 0.48 0.13 97 1012.1
20260509064558 19 73 0.0 3.2 0.00 0.48 0.13 97 1012.4
20260509063050 19 0 0.0 3.2 0.00 0.48 0.13 97 1012.8
20260509061604 19 0 1.6 3.2 0.00 0.48 0.13 97 1012.7
20260509060051 19 0 0.0 1.6 0.00 0.48 0.13 97 1013.1
20260509054610 19 0 0.0 1.6 0.03 0.48 0.13 97 1013.0
20260509053055 19 0 0.0 3.2 0.03 0.48 0.13 97 1013.2
20260509051604 18 0 0.0 1.6 0.05 0.48 0.13 96 1013.8
20260509050053 18 0 0.0 3.2 0.13 0.48 0.13 96 1014.4
20260509044557 18 0 0.0 4.8 0.33 0.46 0.10 96 1014.6
20260509043051 18 79 1.6 4.8 0.46 0.46 0.10 95 1014.7
20260509041552 18 0 0.0 4.8 0.43 0.43 0.08 94 1014.9
20260509040054 18 0 0.0 4.8 0.36 0.36 0.00 93 1015.2
20260509034555 19 0 4.8 14.5 0.13 0.13 0.13 92 1015.3
20260509033054 21 331 3.2 11.3 0.00 0.00 0.00 93 1015.4
20260509031607 21 352 1.6 4.8 0.00 0.00 0.00 93 1015.0
20260509030059 21 61 0.0 8.0 0.00 0.00 0.00 92 1014.6
20260509024556 22 268 1.6 11.3 0.00 0.00 0.00 92 1015.0
20260509023111 22 144 0.0 4.8 0.00 0.00 0.00 93 1014.6
20260509021552 22 46 1.6 4.8 0.00 0.00 0.00 93 1014.4
20260509020053 22 41 0.0 4.8 0.00 0.00 0.00 92 1014.2
20260509014552 22 104 0.0 3.2 0.00 0.00 0.00 92 1014.1
20260509013052 22 0 0.0 1.6 0.00 0.00 0.00 92 1013.7
20260509011555 22 0 0.0 3.2 0.00 0.00 0.00 92 1013.6
20260509010054 22 0 0.0 3.2 0.00 0.00 0.00 92 1013.5
20260509004601 22 0 0.0 4.8 0.00 0.00 0.00 91 1013.3
20260509003057 22 38 0.0 1.6 0.00 0.00 0.00 91 1013.4
20260509001552 22 102 0.0 4.8 0.00 0.00 0.00 91 1013.1
20260509000054 22 24 1.6 8.0 0.00 0.00 0.00 90 1012.8
20260508234556 22 0 1.6 11.3 0.00 0.00 0.00 89 1012.8
20260508233058 22 195 3.2 9.7 0.00 0.00 0.00 89 1012.8
20260508231600 22 97 0.0 9.7 0.00 0.00 0.00 88 1012.7
20260508230125 22 69 3.2 11.3 0.00 0.00 0.00 87 1012.6
20260508224604 22 115 1.6 9.7 0.00 0.00 0.00 87 1012.7
20260508223058 22 55 3.2 11.3 0.00 0.00 0.00 86 1012.3
20260508221552 23 10 3.2 11.3 0.00 0.00 0.00 86 1012.3
20260508220121 23 76 1.6 11.3 0.00 0.00 0.00 85 1012.4
20260508214557 23 52 1.6 12.9 0.00 0.00 0.00 84 1012.4
20260508213056 23 103 3.2 14.5 0.00 0.00 0.00 83 1012.2
20260508211555 23 76 3.2 9.7 0.00 0.00 0.00 82 1012.2
20260508210059 23 74 3.2 16.1 0.00 0.00 0.00 81 1012.3
20260508204605 23 190 4.8 16.1 0.00 0.00 0.00 80 1012.3
20260508203058 23 83 3.2 16.1 0.00 0.00 0.00 79 1012.4
20260508201555 24 91 3.2 12.9 0.00 0.00 0.00 79 1012.5
20260508200100 24 106 1.6 11.3 0.00 0.00 0.00 80 1012.8
20260508194554 23 40 1.6 11.3 0.00 0.00 0.00 80 1013.1
20260508193100 23 81 1.6 9.7 0.00 0.00 0.00 82 1013.3
20260508191553 23 82 0.0 9.7 0.00 0.00 0.00 80 1013.6
20260508190105 23 105 3.2 14.5 0.00 0.00 0.00 80 1013.6
20260508184555 23 5 1.6 6.4 0.00 0.00 0.00 80 1013.5
20260508183053 23 30 1.6 6.4 0.00 0.00 0.00 80 1013.8
20260508181608 23 105 1.6 12.9 0.00 0.00 0.00 79 1013.8
20260508180104 24 67 3.2 11.3 0.00 0.00 0.00 77 1013.6
20260508174604 23 76 3.2 9.7 0.00 0.00 0.00 77 1013.9
20260508173053 23 352 1.6 11.3 0.00 0.00 0.00 77 1013.9
20260508171555 23 62 1.6 11.3 0.00 0.00 0.00 76 1014.3
20260508170059 23 103 1.6 11.3 0.00 0.00 0.00 78 1014.4
20260508164556 23 35 3.2 11.3 0.00 0.00 0.00 80 1014.5
20260508163053 22 135 1.6 11.3 0.00 0.00 0.00 79 1014.8
20260508161601 23 0 1.6 6.4 0.00 0.00 0.00 80 1014.9
20260508160104 23 111 1.6 6.4 0.00 0.00 0.00 79 1015.0
20260508154559 23 98 1.6 9.7 0.00 0.00 0.00 79 1015.1